Salem, OR

7:09 PM PST on February 18, 2018 (GMT -0800)
McNary

Weather History for KSLE - June, 2013

Change the Weather History Date:

Saturday, June 29, 2013

  Actual Average Record
Temperature  
Mean Temperature 76 °F 64 °F  
Max Temperature 90 °F 78 °F 99 °F (1951)
Min Temperature 61 °F 51 °F 38 °F (1893)
Degree Days  
Heating Degree Days 0 2  
Month to date heating degree days 79 127  
Since 1 June heating degree days 79 127  
Since 1 July heating degree days 4279 4650  
Cooling Degree Days 11 2  
Month to date cooling degree days 40 27  
Year to date cooling degree days 50 36  
Since 1 June cooling degree days 40 27  
Growing Degree Days 26 (Base 50)    
Moisture  
Dew Point 58 °F    
Average Humidity 55    
Maximum Humidity 78    
Minimum Humidity 32    
Precipitation  
Precipitation 0.00 in 0.03 in 0.73 in (1958)
Month to date precipitation 1.02 1.52  
Year to date precipitation 11.61 21.06  
Snow  
Snow 0.00 in - - ()
Month to date snowfall 0.0  
Since 1 June snowfall 0.0  
Snow Depth 0.00 in    
Sea Level Pressure  
Sea Level Pressure 30.04 in    
Wind  
Wind Speed 3 mph (ENE)    
Max Wind Speed 13 mph    
Max Gust Speed 22 mph    
Visibility 10 miles    
Events      
T = Trace of Precipitation, MM = Missing Value Source: NWS Daily Summary

Daily Weather History Graph

Daily Weather History Graph

Search for Another Location

Airport or City:

Trip Planner

Search our weather history database for the weather conditions in past years. The results will help you decide how hot, cold, wet, or windy it might be!

Date:

Astronomy

Jun. 29, 2013 Rise Set
Actual Time 5:28 AM PDT 9:02 PM PDT
Civil Twilight 4:51 AM PDT 9:39 PM PDT
Nautical Twilight 4:02 AM PDT 10:28 PM PDT
Astronomical Twilight 2:57 AM PDT 11:32 PM PDT
Moon 12:15 AM PDT (6/29) 1:06 PM PDT (6/29)
Length of Visible Light 16h 47m
Length of Day
15h 33m
Waning Gibbous, 54% of the Moon is Illuminated
Jun 29
Waning Gibbous
Jun 29
Last Quarter
Jul 8
New
Jul 15
First Quarter
Jul 22
Full

Hourly Weather History & Observations

Time (PDT) Temp. Heat Index Dew Point Humidity Pressure Visibility Wind Dir Wind Speed Gust Speed Precip Events Conditions
12:56 AM 68.0 °F - 52.0 °F 56% 30.09 in 10.0 mi West 5.8 mph - N/A   Clear
1:56 AM 66.9 °F - 53.1 °F 61% 30.08 in 10.0 mi Calm Calm - N/A   Partly Cloudy
2:56 AM 64.0 °F - 55.9 °F 75% 30.09 in 10.0 mi Calm Calm - N/A   Clear
3:56 AM 64.0 °F - 55.9 °F 75% 30.09 in 10.0 mi Calm Calm - N/A   Clear
4:56 AM 63.0 °F - 55.9 °F 78% 30.09 in 10.0 mi Calm Calm - N/A   Clear
5:56 AM 62.1 °F - 55.9 °F 80% 30.10 in 10.0 mi SE 3.5 mph - N/A   Clear
6:56 AM 64.0 °F - 57.9 °F 80% 30.10 in 10.0 mi SSE 3.5 mph - N/A   Clear
7:56 AM 68.0 °F - 57.0 °F 68% 30.10 in 10.0 mi SSE 5.8 mph - N/A   Clear
8:56 AM 70.0 °F - 57.0 °F 63% 30.10 in 10.0 mi SE 4.6 mph - N/A   Clear
9:56 AM 75.0 °F - 57.0 °F 53% 30.09 in 10.0 mi Calm Calm - N/A   Clear
10:56 AM 78.1 °F - 57.0 °F 48% 30.09 in 10.0 mi Calm Calm - N/A   Clear
11:56 AM 81.0 °F 81.1 °F 57.9 °F 45% 30.07 in 10.0 mi Calm Calm - N/A   Clear
12:56 PM 84.0 °F 83.5 °F 57.9 °F 41% 30.06 in 10.0 mi ENE 3.5 mph - N/A   Clear
1:56 PM 84.0 °F 83.5 °F 57.9 °F 41% 30.04 in 10.0 mi Calm Calm - N/A   Clear
2:56 PM 87.1 °F 85.9 °F 57.0 °F 36% 30.02 in 10.0 mi Variable 4.6 mph - N/A   Clear
3:56 PM 89.1 °F 87.3 °F 55.9 °F 32% 30.01 in 10.0 mi Variable 5.8 mph - N/A   Clear
4:56 PM 89.1 °F 88.0 °F 57.9 °F 35% 29.99 in 10.0 mi NE 8.1 mph - N/A   Clear
5:56 PM 89.1 °F 88.2 °F 59.0 °F 36% 29.97 in 10.0 mi NE 8.1 mph - N/A   Clear
6:56 PM 88.0 °F 87.6 °F 60.1 °F 39% 29.96 in 10.0 mi North 5.8 mph - N/A   Clear
7:56 PM 84.9 °F 85.0 °F 61.0 °F 44% 29.95 in 10.0 mi ENE 6.9 mph - N/A   Clear
8:56 PM 82.0 °F 82.7 °F 61.0 °F 49% 29.95 in 10.0 mi Calm Calm - N/A   Clear
9:56 PM 75.9 °F - 61.0 °F 60% 29.96 in 10.0 mi NNW 4.6 mph - N/A   Clear
10:56 PM 73.9 °F - 60.1 °F 62% 29.96 in 10.0 mi NNW 5.8 mph - N/A   Clear
11:56 PM 70.0 °F - 62.1 °F 76% 29.96 in 10.0 mi Calm Calm - N/A   Clear